FW6835 Weather Reports


time (UTC)temp
F
wind
direction
speed
knots
gust
knots
rain 1hr
in
rain 24hr
in
rain mn
in
humidity
%
barometer
mb
20260508082541 43 63 0.9 5.2 0.00 0.10 0.00 99 1020.4
20260508082041 43 85 0.9 5.2 0.00 0.10 0.00 99 1020.4
20260508081546 43 90 0.9 3.5 0.00 0.10 0.00 99 1020.4
20260508081041 44 67 1.7 3.5 0.00 0.10 0.00 100 1020.5
20260508080541 44 85 0.0 3.5 0.00 0.10 0.00 100 1020.4
20260508080057 44 97 1.7 3.5 0.00 0.10 0.00 100 1020.3
20260508075539 43 99 0.9 3.5 0.00 0.14 0.00 100 1020.3
20260508075038 43 78 0.9 3.5 0.00 0.14 0.00 100 1020.2
20260508074638 43 86 0.9 5.2 0.00 0.14 0.00 100 1020.1
20260508074037 43 73 0.9 7.0 0.00 0.14 0.00 100 1020.1
20260508073537 43 76 1.7 7.8 0.00 0.14 0.00 100 1020.0
20260508073043 43 69 2.6 7.8 0.00 0.14 0.00 100 1019.9
20260508072534 43 100 1.7 4.3 0.00 0.14 0.00 100 1020.0
20260508072034 43 82 0.9 5.2 0.00 0.14 0.00 100 1019.9
20260508071534 43 74 0.0 3.5 0.00 0.14 0.00 100 1019.8
20260508071032 43 69 0.9 2.6 0.00 0.14 0.00 100 1019.8
20260508070531 43 61 0.0 2.6 0.00 0.14 0.00 100 1019.8
20260508070033 43 61 0.9 4.3 0.00 0.14 0.00 100 1019.6
20260508065534 43 31 0.0 5.2 0.00 0.16 0.00 100 1019.7
20260508065029 43 89 0.0 5.2 0.00 0.16 0.00 100 1019.6
20260508064540 42 127 0.0 5.2 0.00 0.16 0.00 100 1019.5
20260508064029 42 127 1.7 5.2 0.00 0.16 0.00 100 1019.5
20260508063528 42 140 0.9 5.2 0.00 0.16 0.00 100 1019.4
20260508063028 42 86 0.9 4.3 0.00 0.16 0.00 99 1019.4
20260508062526 42 74 1.7 4.3 0.00 0.16 0.00 100 1019.4
20260508062026 42 69 0.9 3.5 0.00 0.16 0.00 100 1019.4
20260508061527 42 76 0.9 3.5 0.00 0.16 0.00 99 1019.4
20260508061025 42 76 0.9 3.5 0.00 0.16 0.00 100 1019.3
20260508060524 42 97 0.9 3.5 0.00 0.16 0.00 99 1019.2
20260508060022 42 88 1.7 3.5 0.00 0.16 0.00 99 1019.1
20260508055524 42 158 0.0 3.5 0.00 0.17 0.00 99 1019.1
20260508055022 42 90 0.9 2.6 0.00 0.17 0.00 99 1019.1
20260508054537 42 277 0.0 5.2 0.00 0.17 0.00 99 1019.0
20260508054021 42 99 0.0 5.2 0.00 0.17 0.00 99 1018.9
20260508053521 42 61 0.9 4.3 0.00 0.17 0.00 99 1018.8
20260508053021 42 66 0.9 4.3 0.00 0.17 0.00 99 1018.9
20260508052520 42 121 0.9 3.5 0.00 0.17 0.00 99 1018.9
20260508052019 42 94 0.9 3.5 0.00 0.17 0.00 99 1019.0
20260508051520 42 102 0.9 3.5 0.00 0.17 0.00 99 1018.8
20260508051020 42 275 0.0 3.5 0.00 0.17 0.00 99 1019.0
20260508050518 42 93 0.9 3.5 0.00 0.17 0.00 99 1018.8
20260508050018 42 93 0.9 4.3 0.00 0.17 0.00 99 1018.7
20260508045518 42 64 0.9 4.3 0.00 0.17 0.00 99 1018.6
20260508045017 42 90 1.7 5.2 0.00 0.17 0.00 100 1018.6
20260508044517 42 82 0.9 2.6 0.00 0.17 0.00 100 1018.6
20260508044017 42 222 0.0 2.6 0.00 0.17 0.00 99 1018.5
20260508043515 42 225 0.0 1.7 0.00 0.17 0.00 99 1018.5
20260508043014 42 240 0.0 2.6 0.00 0.17 0.00 99 1018.5
20260508042513 42 227 0.0 2.6 0.00 0.17 0.00 99 1018.6
20260508042011 42 137 0.0 1.7 0.00 0.17 0.00 99 1018.5
20260508041511 42 86 0.0 0.0 0.00 0.17 0.00 99 1018.6
20260508041011 42 86 0.0 2.6 0.00 0.17 0.00 99 1018.6
20260508040511 42 86 0.0 2.6 0.00 0.17 0.00 99 1018.6
20260508040032 42 76 0.0 1.7 0.00 0.17 0.00 99 1018.7
20260508035508 42 75 0.0 3.5 0.00 0.22 0.00 99 1018.6
20260508035012 42 75 0.9 3.5 0.00 0.22 0.00 99 1018.6
20260508034507 42 72 0.0 2.6 0.00 0.22 0.00 99 1018.6
20260508034006 41 72 0.0 2.6 0.00 0.22 0.00 99 1018.5
20260508033505 42 97 0.9 2.6 0.00 0.22 0.00 99 1018.5
20260508033006 42 103 0.0 0.0 0.00 0.22 0.00 99 1018.4
20260508032504 42 96 0.0 1.7 0.00 0.22 0.00 99 1018.3
20260508032005 42 42 0.0 1.7 0.00 0.22 0.00 99 1018.3
20260508031512 42 43 0.0 1.7 0.00 0.22 0.00 99 1018.3
20260508031002 42 292 0.0 3.5 0.00 0.22 0.00 99 1018.2
20260508030504 42 42 0.0 3.5 0.00 0.22 0.00 99 1018.2
20260508030003 42 119 0.0 3.5 0.00 0.22 0.00 99 1018.2
20260508025503 42 75 0.0 3.5 0.00 0.27 0.00 99 1018.1
20260508025002 42 81 1.7 3.5 0.00 0.27 0.00 99 1018.2
20260508024501 42 108 0.0 1.7 0.00 0.27 0.00 99 1018.1
20260508024002 42 111 0.0 1.7 0.00 0.27 0.00 99 1018.1
20260508023601 42 110 0.0 1.7 0.00 0.27 0.00 99 1018.1
20260508023101 42 40 0.0 0.9 0.00 0.27 0.00 99 1018.2
20260508022559 42 40 0.0 1.7 0.00 0.27 0.00 99 1018.1
20260508022058 42 36 0.0 1.7 0.00 0.27 0.00 99 1018.2
20260508021558 42 344 0.0 1.7 0.00 0.27 0.00 99 1018.3
20260508021058 42 339 0.0 1.7 0.00 0.27 0.00 99 1018.2
20260508020558 42 338 0.0 0.9 0.00 0.27 0.00 99 1018.3
20260508020059 42 337 0.0 1.7 0.00 0.27 0.00 99 1018.2
20260508015557 42 336 0.0 3.5 0.00 0.28 0.00 99 1018.2
20260508015056 42 329 0.0 3.5 0.00 0.28 0.00 99 1018.1
20260508014556 42 153 0.0 1.7 0.00 0.28 0.00 99 1018.2
20260508014056 42 153 0.0 2.6 0.00 0.28 0.00 99 1018.1
20260508013557 42 71 0.0 3.5 0.00 0.28 0.00 99 1018.1
20260508013055 42 65 0.0 3.5 0.00 0.28 0.00 99 1018.0
20260508012554 42 98 0.9 3.5 0.00 0.28 0.00 99 1018.0
20260508012055 42 59 0.9 3.5 0.00 0.28 0.00 99 1018.0
20260508011553 42 85 0.0 5.2 0.00 0.28 0.00 99 1018.1
20260508011052 42 78 1.7 5.2 0.00 0.28 0.00 99 1017.9
20260508010552 42 124 0.0 1.7 0.00 0.28 0.00 99 1017.8
20260508010052 42 115 0.0 5.2 0.00 0.28 0.00 99 1017.8
20260508005551 42 88 0.9 5.2 0.00 0.35 0.00 99 1017.7
20260508005050 42 116 0.9 4.3 0.00 0.35 0.00 99 1017.7
20260508004553 42 327 0.0 4.3 0.00 0.35 0.00 99 1017.7
20260508004050 42 75 0.0 3.5 0.00 0.35 0.00 99 1017.7
20260508003554 42 103 0.0 2.6 0.00 0.35 0.00 99 1017.7
20260508003051 42 103 0.0 2.6 0.00 0.35 0.00 99 1017.7
20260508002547 42 103 0.0 7.8 0.00 0.35 0.00 99 1017.7
20260508002048 42 72 0.9 7.8 0.00 0.35 0.00 99 1017.8
20260508001547 42 102 0.9 2.6 0.00 0.35 0.00 99 1017.8
20260508001046 42 72 0.0 2.6 0.00 0.35 0.00 99 1017.8
20260508000546 42 71 0.9 2.6 0.00 0.35 0.00 99 1017.7
20260508000050 42 98 0.0 2.6 0.00 0.35 0.00 99 1017.8
20260507235550 42 80 0.0 2.6 0.00 0.46 0.00 99 1017.9
20260507235046 42 62 0.9 4.3 0.00 0.46 0.00 99 1017.8
20260507234553 42 61 0.0 4.3 0.00 0.46 0.00 99 1017.9
20260507234045 42 104 0.0 2.6 0.00 0.46 0.00 99 1017.8
20260507233545 42 69 0.0 4.3 0.00 0.46 0.00 99 1017.8
20260507233108 42 41 0.0 5.2 0.00 0.46 0.00 99 1017.9
20260507232543 42 289 1.7 5.2 0.00 0.46 0.00 99 1017.7
20260507232047 42 90 0.0 3.5 0.00 0.46 0.00 99 1017.7
20260507231542 42 70 0.0 2.6 0.00 0.46 0.00 99 1017.8
20260507231042 42 81 0.0 4.3 0.00 0.46 0.00 99 1017.8
20260507230541 42 63 1.7 4.3 0.00 0.46 0.00 99 1017.8
20260507230046 42 63 1.7 4.3 0.00 0.46 0.00 99 1017.7
20260507225540 43 98 0.9 4.3 0.00 0.49 0.00 99 1017.9
20260507225041 43 140 0.9 2.6 0.00 0.49 0.00 99 1017.8
20260507224540 43 224 0.0 1.7 0.00 0.49 0.00 99 1017.7
20260507224143 43 225 0.0 1.7 0.00 0.49 0.00 99 1017.8
20260507223540 43 219 0.0 6.1 0.00 0.49 0.00 99 1017.7
20260507223054 43 80 1.7 6.1 0.00 0.49 0.00 99 1017.8
20260507222540 43 65 0.9 5.2 0.00 0.49 0.00 99 1017.7
20260507222038 43 78 0.9 5.2 0.00 0.49 0.00 99 1017.7
20260507221542 43 68 0.9 3.5 0.00 0.49 0.00 99 1017.8
20260507221037 43 76 0.9 3.5 0.00 0.49 0.00 99 1017.6
20260507220537 43 88 0.0 3.5 0.00 0.49 0.00 99 1017.7
20260507220038 43 79 0.9 4.3 0.00 0.49 0.00 99 1017.7
20260507215534 43 76 0.9 4.3 0.00 0.49 0.49 99 1017.6
20260507215034 43 56 0.9 3.5 0.00 0.49 0.49 99 1017.6
20260507214533 43 99 0.0 3.5 0.00 0.49 0.49 99 1017.6
20260507214035 43 88 0.0 4.3 0.00 0.49 0.49 99 1017.7
20260507213535 43 46 0.0 5.2 0.00 0.49 0.49 99 1017.7
20260507213034 43 63 0.9 5.2 0.00 0.49 0.49 99 1017.6
20260507212531 43 105 0.9 7.8 0.00 0.49 0.49 99 1017.5
20260507212032 43 90 1.7 7.8 0.00 0.49 0.49 99 1017.5
20260507211536 43 77 0.0 3.5 0.00 0.49 0.49 99 1017.4
20260507211028 43 53 0.9 5.2 0.00 0.49 0.49 99 1017.3
20260507210528 43 144 0.9 5.2 0.00 0.49 0.49 99 1017.5
20260507210031 43 99 0.0 3.5 0.00 0.49 0.49 99 1017.4
20260507205527 43 86 0.0 3.5 0.00 0.49 0.49 99 1017.3
20260507205026 43 79 0.9 5.2 0.00 0.49 0.49 99 1017.4
20260507204526 43 103 0.0 2.6 0.00 0.49 0.49 99 1017.3
20260507204027 43 136 0.0 2.6 0.00 0.49 0.49 99 1017.3
20260507203525 43 80 0.0 4.3 0.00 0.49 0.49 99 1017.3
20260507203026 43 52 0.0 4.3 0.00 0.49 0.49 99 1017.2
20260507202523 43 74 0.9 3.5 0.00 0.49 0.49 99 1017.1
20260507202026 43 79 1.7 3.5 0.00 0.49 0.49 99 1017.1
20260507201522 43 51 0.0 2.6 0.00 0.49 0.49 99 1017.1
20260507201022 43 95 0.9 5.2 0.00 0.49 0.49 99 1016.9
20260507200521 43 92 0.9 5.2 0.00 0.49 0.49 99 1016.9
20260507200022 43 113 0.9 7.0 0.00 0.49 0.49 99 1016.9
20260507195522 43 80 0.9 2.6 0.00 0.49 0.49 99 1016.8
20260507195020 43 81 0.0 6.1 0.00 0.49 0.49 99 1016.6
20260507194531 43 71 2.6 7.8 0.00 0.49 0.49 99 1016.6
20260507194018 43 315 0.9 7.8 0.00 0.49 0.49 99 1016.5
20260507193519 43 117 0.0 5.2 0.01 0.49 0.49 99 1016.5
20260507193018 43 128 0.9 5.2 0.01 0.49 0.49 99 1016.5
20260507192517 44 82 0.9 5.2 0.01 0.49 0.49 99 1016.3
20260507192015 44 59 0.9 4.3 0.01 0.49 0.49 99 1016.3
20260507191514 44 98 1.7 5.2 0.01 0.49 0.49 99 1016.2
20260507191018 44 110 0.9 5.2 0.01 0.49 0.49 99 1016.1
20260507190513 44 86 0.9 5.2 0.01 0.49 0.49 99 1016.1
20260507190018 44 49 1.7 4.3 0.01 0.49 0.49 99 1016.0
20260507185514 44 87 0.0 4.3 0.01 0.49 0.49 99 1015.9
20260507185013 44 67 0.0 5.2 0.01 0.49 0.49 99 1015.8
20260507184510 44 119 0.9 6.1 0.01 0.49 0.49 99 1015.7
20260507184011 44 110 0.9 6.1 0.01 0.49 0.49 99 1015.7
20260507183509 44 62 0.9 4.3 0.00 0.48 0.48 98 1015.6
20260507183013 44 73 0.9 5.2 0.00 0.48 0.48 98 1015.5
20260507182508 45 91 0.9 5.2 0.00 0.48 0.48 99 1015.5
20260507182009 45 109 1.7 5.2 0.00 0.48 0.48 99 1015.5
20260507181506 45 134 0.9 2.6 0.00 0.48 0.48 99 1015.3
20260507181006 45 137 0.0 2.6 0.01 0.48 0.48 99 1015.2
20260507180505 45 163 0.9 7.0 0.01 0.48 0.48 98 1015.3
20260507180005 45 123 0.9 7.0 0.01 0.48 0.48 98 1015.2
20260507175504 45 243 0.0 3.5 0.01 0.48 0.48 98 1015.2
20260507175004 45 74 0.0 4.3 0.01 0.48 0.48 98 1015.3
20260507174509 45 76 0.0 4.3 0.01 0.48 0.48 98 1015.2
20260507174001 45 113 0.9 2.6 0.02 0.48 0.48 99 1015.3
20260507173503 45 82 0.0 3.5 0.02 0.48 0.48 98 1015.2
20260507173118 45 82 0.9 3.5 0.02 0.48 0.48 98 1015.1
20260507172559 45 120 0.0 5.2 0.02 0.48 0.48 98 1015.0
20260507172058 45 159 0.0 2.6 0.02 0.48 0.48 98 1015.0
20260507171557 45 151 0.0 3.5 0.02 0.48 0.48 98 1014.8
20260507171057 45 77 0.9 8.7 0.01 0.47 0.47 98 1014.7
20260507170556 45 98 0.9 8.7 0.01 0.47 0.47 98 1014.7
20260507170058 45 160 0.0 4.3 0.01 0.47 0.47 98 1014.7
20260507165555 46 91 0.0 4.3 0.01 0.47 0.47 98 1014.7
20260507165055 46 90 0.9 5.2 0.01 0.47 0.47 98 1014.6
20260507164628 46 94 0.0 3.5 0.01 0.47 0.47 98 1014.6
20260507164054 46 11 0.9 3.5 0.00 0.46 0.46 98 1014.6
20260507163552 46 90 0.9 3.5 0.00 0.46 0.46 98 1014.5
20260507163055 46 71 0.0 3.5 0.00 0.46 0.46 98 1014.4
20260507162551 46 75 0.0 2.6 0.00 0.46 0.46 98 1014.5
20260507162052 46 63 0.0 5.2 0.00 0.46 0.46 98 1014.5
20260507161556 46 88 0.9 4.3 0.00 0.46 0.46 98 1014.5
20260507161051 46 71 0.0 7.0 0.00 0.46 0.46 98 1014.3
20260507160548 47 52 0.9 7.0 0.00 0.46 0.46 98 1014.3
20260507160048 47 70 0.9 4.3 0.00 0.46 0.46 98 1014.3
20260507155547 47 94 0.9 6.1 0.00 0.46 0.46 98 1014.3
20260507155048 47 5 0.9 6.1 0.00 0.46 0.46 98 1014.5
20260507154548 47 95 1.7 5.2 0.00 0.46 0.46 98 1014.4
20260507154046 47 71 0.0 5.2 0.00 0.46 0.46 98 1014.3
20260507153549 47 101 0.0 4.3 0.01 0.46 0.46 98 1014.3
20260507153046 47 52 0.0 4.3 0.01 0.46 0.46 98 1014.2
20260507152547 47 42 0.9 3.5 0.01 0.46 0.46 98 1014.0
20260507152044 47 71 0.0 3.5 0.02 0.46 0.46 98 1014.1
20260507151545 47 44 0.9 5.2 0.02 0.46 0.46 98 1013.9
20260507151047 47 90 0.9 5.2 0.02 0.46 0.46 98 1013.9
20260507150541 47 81 0.9 3.5 0.02 0.46 0.46 98 1013.8
20260507150045 47 42 0.9 3.5 0.02 0.46 0.46 98 1013.7
20260507145541 47 55 0.0 3.5 0.02 0.46 0.46 98 1013.7
20260507145041 47 57 0.9 3.5 0.02 0.46 0.46 98 1013.6
20260507144540 47 85 0.9 4.3 0.02 0.46 0.46 98 1013.6
20260507144039 47 24 0.9 4.3 0.02 0.46 0.46 98 1013.6
20260507143539 47 325 0.0 3.5 0.02 0.46 0.46 98 1013.4
20260507143041 47 349 0.9 4.3 0.02 0.46 0.46 98 1013.5
20260507142537 47 84 0.9 4.3 0.02 0.46 0.46 98 1013.5
20260507142037 47 64 0.9 2.6 0.01 0.45 0.45 98 1013.4
20260507141538 47 115 0.0 3.5 0.01 0.45 0.45 98 1013.5
20260507141040 47 86 0.9 3.5 0.01 0.45 0.45 98 1013.5
20260507140536 47 88 0.9 6.1 0.01 0.45 0.45 98 1013.4
20260507140041 47 103 0.9 6.1 0.00 0.44 0.44 98 1013.2
20260507135535 48 91 0.0 4.3 0.01 0.44 0.44 98 1013.4
20260507135035 48 5 0.9 4.3 0.01 0.44 0.44 98 1013.2
20260507134535 48 82 0.9 5.2 0.01 0.44 0.44 98 1013.2
20260507134034 48 53 1.7 5.2 0.01 0.44 0.44 98 1013.1
20260507133535 49 64 0.0 2.6 0.02 0.44 0.44 98 1013.0
20260507133035 48 64 0.0 3.5 0.02 0.44 0.44 98 1013.1
20260507132534 48 61 0.0 4.3 0.02 0.44 0.44 98 1013.1
20260507132033 48 79 1.7 4.3 0.02 0.44 0.44 98 1013.0
20260507131538 48 45 0.0 2.6 0.03 0.44 0.44 98 1013.1
20260507131033 48 76 0.9 4.3 0.03 0.44 0.44 98 1013.1
20260507130536 48 69 0.9 4.3 0.03 0.44 0.44 98 1013.1
20260507130038 48 34 0.9 3.5 0.03 0.44 0.44 98 1012.9
20260507125534 48 82 0.0 0.0 0.04 0.43 0.43 99 1013.0
20260507125030 48 342 0.0 2.6 0.04 0.43 0.43 98 1012.9
20260507124538 48 53 0.0 2.6 0.04 0.43 0.43 98 1012.8
20260507124030 48 85 0.0 2.6 0.04 0.43 0.43 98 1012.8
20260507123529 48 301 0.0 3.5 0.03 0.43 0.43 99 1012.7
20260507123029 48 296 0.9 3.5 0.03 0.43 0.43 98 1012.6
20260507122530 48 346 0.0 2.6 0.03 0.43 0.43 98 1012.6
20260507122026 48 42 0.0 4.3 0.02 0.42 0.42 98 1012.5
20260507121527 48 58 1.7 4.3 0.02 0.41 0.41 98 1012.5
20260507121026 48 67 1.7 3.5 0.02 0.41 0.41 99 1012.5
20260507120526 48 64 0.0 2.6 0.02 0.41 0.41 98 1012.4
20260507120026 48 67 0.9 2.6 0.01 0.40 0.40 98 1012.5
20260507115626 48 61 0.9 2.6 0.00 0.39 0.39 98 1012.4
20260507115024 48 66 0.9 4.3 0.00 0.39 0.39 98 1012.3
20260507114537 48 90 1.7 6.1 0.00 0.39 0.39 98 1012.2
20260507114024 48 59 0.9 6.1 0.00 0.39 0.39 98 1012.2
20260507113524 48 72 0.0 3.5 0.00 0.39 0.39 98 1012.3
20260507113039 49 78 0.0 2.6 0.00 0.39 0.39 99 1012.2
20260507112521 48 273 0.0 3.5 0.00 0.39 0.39 98 1012.1
20260507112021 48 61 0.9 3.5 0.00 0.39 0.39 98 1012.0
20260507111523 48 65 0.9 2.6 0.00 0.39 0.39 98 1012.0
20260507111019 48 79 0.9 3.5 0.00 0.39 0.39 98 1012.0
20260507110519 48 55 0.9 5.2 0.00 0.39 0.39 98 1012.0
20260507110019 49 5 0.9 5.2 0.00 0.39 0.39 98 1011.9
20260507105518 49 84 0.9 3.5 0.00 0.39 0.39 98 1011.9
20260507105018 48 52 0.9 3.5 0.00 0.39 0.39 98 1011.8
20260507104518 48 74 0.9 2.6 0.00 0.39 0.39 98 1011.7
20260507104017 49 90 0.9 7.0 0.00 0.39 0.39 98 1011.7
20260507103519 49 68 1.7 7.0 0.00 0.39 0.39 98 1011.7
20260507103020 49 343 0.0 4.3 0.00 0.39 0.39 98 1011.7
20260507102516 50 64 0.9 7.8 0.00 0.39 0.39 99 1011.7
20260507102015 50 36 1.7 7.8 0.01 0.39 0.39 99 1011.5
20260507101517 50 74 0.0 2.6 0.01 0.39 0.39 99 1011.5
20260507101018 50 60 0.0 2.6 0.01 0.39 0.39 99 1011.6
20260507100514 49 78 0.9 2.6 0.01 0.39 0.39 99 1011.6
20260507100014 49 81 0.0 2.6 0.01 0.39 0.39 99 1011.6
20260507095514 49 78 0.0 3.5 0.01 0.39 0.39 99 1011.5
20260507095014 49 73 0.0 3.5 0.01 0.39 0.39 99 1011.4
20260507094511 49 63 0.0 2.6 0.01 0.39 0.39 98 1011.4
20260507094011 48 57 0.0 2.6 0.01 0.39 0.39 98 1011.5
20260507093510 48 267 0.0 1.7 0.01 0.39 0.39 99 1011.3
20260507093010 48 267 0.0 1.7 0.01 0.39 0.39 99 1011.3
20260507092513 48 266 0.0 2.6 0.01 0.39 0.39 98 1011.2
20260507092010 49 67 0.0 2.6 0.00 0.39 0.39 98 1011.1
20260507091508 49 61 0.0 3.5 0.00 0.39 0.39 98 1011.1
20260507091007 49 29 0.9 5.2 0.00 0.39 0.39 98 1011.0
20260507090511 49 10 1.7 5.2 0.00 0.39 0.39 98 1010.9
20260507090006 49 79 0.0 2.6 0.00 0.39 0.39 99 1010.9
20260507085508 49 50 0.0 2.6 0.00 0.39 0.39 99 1010.8
20260507085006 49 74 0.9 3.5 0.00 0.39 0.39 99 1010.8
20260507084507 49 57 0.0 3.5 0.00 0.39 0.39 99 1010.7
20260507084004 49 63 0.0 0.0 0.00 0.39 0.39 99 1010.6
20260507083504 48 64 0.0 1.7 0.01 0.39 0.39 98 1010.6
20260507083004 48 65 0.0 3.5 0.01 0.39 0.39 99 1010.4